SCP
-0 -0 -0 0 0 0 0 0 0 0 0 0 0 0 0 0 0 0 0 0 0 0 0 0 0 0 0 0 0 0 0 0 0 0 0 0 0 0 0 0 0 0 0
0 -0 0 0 0 0 0 0 0 0 0 0 0 0 0 0 0 0 0 0 0 0 0 0 0 0 0 0 0 0 0 0 0 0 0 0 0 0 0 0 0 0 0
0 0 0 0 0 0 0 0 0 0 0 0 0 0 0 0 0 0 0 0 0 0 0 0 0 0 0 0 0 0 0 0 0 0 0 0 0 0 0 0 0 0 0
0 0 0 0 0 0 0 0 0 0 0 0 0 0 0 0 0 0 0 0 0 0 0 0 0 0 0 0 0 0 0 0 0 0 0 0 0 0 0 0 0 0 0
0 0 0 0 0 0 0 0 0 0 0 0 0 0 0 0 0 0 0 0 0 0 0 0 0 0 0 0 0 0 0 0 0 0 0 0 0 0 0 0 0 0 0
0 0 0 0 0 0 0 0 0 0 0 0 0 0 0 0 0 0 0 0 0 0 0 0 0 0 0 0 0 0 0 0 0 0 0 0 0 0 0 0 0 0 0
-0 -0 0 0 0 0 0 0 0 0 0 0 0 0 0 0 0 0 0 0 0 0 0 0 0 0 0 0 0 0 0 0 0 0 0 0 0 0 0 0 0 0 0
-0 -0 -0 0 0 0 0 0 0 0 0 0 0 0 0 0 0 0 0 0 0 0 0 0 0 0 0 0 0 0 0 0 0 0 0 0 0 0 0 0 0 0 0
0 0 0 0 0 0 0 0 0 0 0 0 0 0 0 0 0 0 0 0 0 0 0 0 0 0 0 0 0 0 0 0 0 0 0 0 0 0 0 0 0 0 0
0 0 0 0 0 0 0 0 0 0 0 0 0 0 0 0 0 0 0 0 0 0 0 0 0 0 0 0 0 0 0 0 0 0 0 0 0 0 0 0 0 0 0
0 0 0 0 0 0 0 0 0 0 0 0 0 0 0 0 0 0 0 0 0 0 0 0 0 0 0 0 0 0 0 0 0 0 0 0 0 0 0 0 0 0 0
0 0 0 0 0 0 0 0 0 0 0 0 0 0 0 0 0 0 0 0 0 0 0 0 0 0 0 0 0 0 0 0 0 0 0 0 0 0 0 0 0 0 0
0 0 0 0 0 0 0 0 0 0 0 0 0 0 0 0 0 0 0 0 0 0 0 0 0 0 0 0 0 0 0 0 0 0 0 0 0 0 0 0 0 0 0
0 0 0 0 0 0 0 0 0 0 0 0 0 0 0 0 0 0 0 0 0 0 0 0 0 0 0 0 0 0 0 0 0 0 0 0 0 0 0 0 0 0 0
0 0 0 0 0 0 0 0 0 0 0 0 0 0 0 0 0 0 0 0 0 0 0 0 0 0 0 0 0 0 0 0 0 0 0 0 0 0 0 0 0 0 0
0 0 0 0 0 0 0 0 0 0 0 0 0 0 0 0 0 0 0 0 0 0 0 0 0 0 0 0 0 0 0 0 0 0 0 0 0 0 0 0 0 0 0
0 0 0 0 0 0 0 0 0 0 0 0 0 0 0 0 0 0 0 0 0 0 0 0 0 0 0 0 0 0 0 0 0 0 0 0 0 0 0 0 0 0 0
0 0 0 0 0 0 0 0 0 0 0 0 0 0 0 0 0 0 0 0 0 0 0 0 0 0 0 0 0 0 0 0 0 0 0 0 0 0 0 0 0 0 0
0 0 0 0 0 0 0 0 0 0 0 0 0 0 0 0 0 0 0 0 0 0 0 0 0 0 0 0 0 0 0 0 0 0 0 0 0 0 0 0 0 0 0
0 0 0 0 0 0 0 0 0 0 0 0 0 0 0 0 0 0 0 0 0 0 0 0 0 0 0 0 0 0 0 0 0 0 0 0 0 0 0 0 0 0 0
0 0 0 0 0 0 0 0 0 0 0 0 0 0 0 0 0 0 0 0 0 0 0 0 0 0 0 0 0 0 0 0 0 0 0 0 0 0 0 0 0 0 0
0 0 0 0 0 -0 0 0 0 0 0 0 0 0 0 0 0 0 0 0 0 0 0 0 0 0 0 0 0 0 0 0 0 0 0 0 0 0 0 0 0 0 0
0 0 0 0 0 0 0 0 0 0 0 0 0 0 0 0 0 0 0 0 0 0 0 0 0 0 0 0 0 0 0 0 0 0 0 0 0 0 0 0 0 0 0
0 0 0 0 0 0 0 0 0 0 0 0 0 0 0 0 0 0 0 0 0 0 0 0 0 0 0 0 0 0 0 0 0 0 0 0 0 0 0 0 0 0 0
0 0 0 0 0 0 0 0 0 0 0 0 0 0 0 0 0 0 0 0 0 0 0 0 0 0 0 0 0 0 0 0 0 0 0 0 0 0 0 0 0 0 0
0 0 0 0 0 0 0 0 0 0 0 0 0 0 0 0 0 0 0 0 0 0 0 0 0 0 0 0 0 0 0 0 0 0 0 0 0 0 0 0 0 0 0
Wind_Speed
2 2 5 6 6 6 6 6 6 6 6 6 6 6 6 6 6 5 5 5 4 4 4 4 4 5 5 5 5 5 5 5 5 5 5 5 5 5 6 6 6 4 7
3 3 6 6 6 5 5 5 5 5 6 6 6 5 5 5 5 5 4 4 3 3 3 3 3 3 4 4 4 4 4 4 4 4 4 4 4 5 5 6 6 4 6
3 3 4 5 5 5 5 5 4 5 5 5 5 5 5 5 5 4 4 4 3 3 2 1 1 2 2 3 3 3 3 3 3 3 3 2 1 4 5 5 5 6 6
3 1 2 3 4 4 4 4 4 5 5 5 5 5 5 5 5 5 5 4 4 4 3 3 2 2 1 1 1 2 2 2 2 3 2 1 0 3 4 4 5 5 5
2 1 0 1 2 3 3 3 4 5 5 5 5 6 6 6 6 6 6 6 5 5 5 4 4 3 2 1 0 1 1 2 2 3 1 1 0 2 3 4 4 5 5
2 1 0 2 2 2 3 3 5 5 5 5 6 7 8 8 8 7 7 7 7 6 6 6 5 5 4 3 2 1 1 1 2 2 1 1 1 2 4 4 4 4 5
1 1 0 2 2 2 3 4 5 5 6 6 7 8 9 9 8 8 8 8 8 8 8 7 7 7 6 5 3 2 1 0 1 0 1 1 2 4 5 5 5 4 4
1 1 2 2 1 2 2 4 5 5 6 6 7 7 9 9 9 9 8 8 8 9 9 8 8 8 7 6 5 4 3 2 1 0 1 1 4 5 5 5 5 5 5
2 2 3 3 4 5 5 5 5 6 6 6 7 7 8 8 8 9 9 9 9 9 9 9 9 9 8 7 7 6 4 3 1 1 2 1 5 6 6 6 6 6 6
3 3 3 3 3 3 4 6 6 7 7 6 7 8 8 8 8 9 8 8 9 9 9 9 9 9 9 8 8 7 5 2 1 2 1 3 6 7 7 7 7 6 6
2 2 3 3 3 3 3 5 6 7 7 7 6 7 6 3 4 5 7 8 10 10 9 8 8 8 8 7 8 8 4 1 2 2 2 5 7 7 7 7 7 7 6
1 2 2 2 3 3 3 3 3 3 4 3 3 3 3 2 3 4 5 8 9 9 8 8 8 7 5 2 5 6 2 2 2 2 3 7 8 8 8 8 8 8 7
0 1 2 2 2 3 2 2 2 2 2 3 3 3 3 2 2 2 2 3 4 5 3 4 4 2 2 2 2 2 3 2 2 2 3 8 8 8 9 9 9 9 9
1 0 1 1 2 2 2 2 2 2 2 2 3 3 2 1 2 2 1 2 2 1 2 2 1 2 2 3 3 4 4 3 3 2 4 8 9 9 9 10 10 10 10
1 1 1 1 2 2 2 2 2 2 2 2 2 2 2 1 2 2 2 2 2 2 2 2 2 2 3 3 3 4 4 4 4 4 3 7 9 10 10 10 11 11 11
1 1 1 1 2 2 2 2 2 2 2 2 2 3 2 1 1 2 2 2 2 2 2 2 2 2 2 2 3 3 4 4 4 4 4 5 8 9 10 10 11 11 11
1 1 1 0 2 3 3 3 2 2 2 2 2 3 3 2 2 2 2 2 2 2 2 1 2 1 2 2 2 3 3 4 3 4 4 3 3 6 9 10 10 11 12
1 0 1 1 2 3 3 3 2 2 2 2 2 2 3 3 2 2 1 2 2 1 1 1 1 1 2 2 2 2 2 2 3 4 3 3 3 3 5 8 9 10 11
1 1 1 2 2 3 3 3 2 2 2 2 2 2 3 3 2 1 1 2 2 1 1 1 1 1 2 2 2 2 2 2 3 3 3 4 3 3 3 5 8 10 10
1 0 1 2 2 3 2 2 2 3 3 2 2 2 3 3 3 2 1 2 2 1 1 1 1 1 1 1 2 2 2 2 2 2 3 3 3 3 3 3 3 6 10
1 1 1 2 2 2 2 2 2 3 3 3 3 3 3 3 3 2 2 2 1 1 1 1 0 1 1 0 0 1 1 2 2 2 2 2 3 3 3 4 3 3 4
2 2 2 2 2 2 1 1 2 2 3 3 3 3 3 3 3 2 1 1 1 1 1 1 0 0 1 1 1 1 1 1 2 2 2 3 3 2 3 4 3 4 4
3 3 3 3 3 3 2 1 2 2 2 3 3 3 4 4 3 3 2 1 1 0 1 1 1 1 1 1 1 2 2 2 1 1 1 2 2 2 2 3 4 5 5
5 3 3 3 3 3 2 1 1 1 2 3 3 3 4 4 3 3 2 2 1 1 1 1 1 1 1 1 1 1 1 1 1 1 1 1 1 2 3 3 4 5 5
4 3 3 2 3 2 2 1 1 1 2 3 3 4 4 4 4 3 3 2 2 1 1 1 1 1 1 1 1 1 0 0 1 1 1 1 1 1 2 3 3 3 5
3 2 2 2 3 2 2 2 1 2 3 3 4 4 4 3 3 4 3 2 2 1 2 1 1 1 1 2 1 2 2 1 1 2 1 1 2 2 2 2 3 3 3
Wind_Direction
204 203 186 160 155 157 162 163 161 157 154 153 150 147 143 140 135 134 131 129 125 117 107 102 99 98 93 89 90 88 88 86 85 86 85 80 87 99 100 99 95 85 91
160 176 186 167 162 166 170 176 179 177 174 172 170 166 163 158 155 154 151 149 144 138 125 113 113 103 97 92 91 89 84 77 81 93 94 80 86 105 108 109 110 106 99
144 171 183 176 175 177 184 192 198 202 198 192 190 188 186 182 181 180 179 179 178 175 171 160 137 120 105 94 87 82 75 64 76 98 98 70 72 112 115 117 119 114 107
126 127 176 192 195 196 200 206 210 220 217 215 213 212 213 209 207 205 208 207 206 204 205 211 216 198 157 113 78 68 62 59 82 107 99 120 264 134 134 129 128 123 118
105 82 319 219 225 227 225 232 240 243 240 237 240 236 233 231 227 223 225 224 224 224 223 223 227 226 226 220 182 33 39 55 76 88 98 127 288 166 148 143 139 132 130
111 95 318 248 257 269 268 266 263 264 265 260 258 258 253 247 243 238 236 235 234 235 236 235 231 230 235 240 236 278 356 44 72 78 102 163 221 201 171 159 155 145 138
103 68 318 234 247 266 277 275 276 277 276 274 273 273 269 264 260 255 250 246 243 242 241 241 237 234 237 241 241 250 275 323 109 124 167 203 227 217 190 175 169 161 151
91 40 13 353 2 342 311 302 303 298 289 283 283 285 283 279 273 270 266 262 257 251 248 246 241 236 238 242 243 245 250 258 134 120 224 226 229 221 203 188 183 175 169
51 37 17 6 6 356 343 333 326 317 306 300 301 300 298 294 285 276 270 268 265 262 255 249 244 240 241 242 245 247 248 244 155 204 240 235 237 228 209 197 191 182 177
40 28 16 8 6 357 342 334 336 329 325 320 318 312 310 307 303 294 286 278 271 266 262 256 250 245 244 246 247 248 250 248 188 216 242 252 245 236 216 201 194 186 181
26 15 15 9 359 351 335 349 351 341 340 338 331 323 322 319 311 299 292 290 283 276 271 267 260 255 253 253 255 251 248 201 205 220 232 254 250 241 221 206 196 189 186
356 357 15 11 2 358 353 360 346 344 340 335 322 317 310 302 299 300 304 298 297 290 282 276 270 264 259 250 260 260 229 210 216 228 237 248 247 241 224 208 201 194 192
215 355 3 357 358 3 351 344 343 339 337 333 331 321 312 312 308 308 307 307 307 300 288 283 282 262 245 230 238 233 222 216 217 232 245 248 247 241 226 213 205 199 194
142 314 347 357 5 358 352 338 333 334 331 331 330 331 331 321 315 305 292 283 285 285 279 271 259 259 251 239 235 235 231 224 221 223 240 249 248 242 230 219 209 202 196
180 250 335 7 12 4 1 339 352 338 330 325 328 332 340 323 313 307 299 293 284 267 263 266 255 257 250 245 239 234 232 230 229 225 235 245 247 244 236 225 212 205 199
214 252 340 13 11 11 2 342 336 338 332 332 331 332 335 319 307 314 312 306 291 271 256 251 245 240 245 240 245 236 233 229 229 228 226 243 248 244 235 228 215 206 202
216 281 330 218 24 8 351 342 343 333 337 335 328 329 330 324 315 309 303 299 294 285 267 254 252 232 239 244 249 247 235 232 230 230 227 225 241 243 232 225 218 209 206
182 46 343 15 19 355 346 338 333 335 339 331 325 326 328 328 322 309 297 288 292 293 276 253 235 234 234 237 243 248 240 238 237 230 223 220 221 229 228 224 215 208 209
177 174 333 350 342 337 339 338 336 339 341 328 329 330 328 328 325 307 293 294 301 297 278 270 224 219 237 237 235 237 243 245 245 239 226 219 215 212 210 222 217 209 208
158 212 303 322 325 331 336 342 343 348 342 337 334 330 332 331 329 319 301 313 320 307 296 272 239 235 239 235 249 251 241 244 243 239 233 222 211 209 207 209 210 215 212
194 271 287 306 316 336 342 342 336 327 323 329 331 334 335 335 337 328 318 323 329 307 292 287 233 239 259 200 141 290 276 250 245 243 233 221 217 207 198 202 198 201 210
229 251 270 279 296 310 301 286 270 283 295 295 309 330 336 339 337 334 325 312 312 306 332 324 182 182 231 179 155 144 302 319 279 251 231 222 224 207 209 214 200 205 203
237 241 250 261 282 302 315 332 342 347 336 339 337 335 330 334 335 330 328 319 319 319 274 276 238 187 218 238 185 159 165 223 284 305 259 240 216 216 225 214 210 209 208
235 240 249 260 281 303 326 348 352 347 322 303 305 307 318 331 337 336 333 334 332 326 297 281 229 213 183 213 256 228 198 169 168 321 330 309 243 227 229 228 219 210 207
231 232 247 269 285 306 329 326 335 323 292 300 312 327 334 334 338 339 333 334 329 311 290 288 295 235 194 196 196 199 204 180 171 173 284 314 306 248 230 229 223 213 208
236 239 247 264 282 303 322 325 321 310 316 331 337 341 338 332 334 344 342 339 325 309 295 288 279 244 212 208 210 194 178 184 187 181 216 259 277 276 252 236 225 217 210